CDT,Max TemperatureF,Mean TemperatureF,Min TemperatureF,Max Dew PointF,MeanDew PointF,Min DewpointF,Max Humidity, Mean Humidity, Min Humidity, Max Sea Level PressureIn, Mean Sea Level PressureIn, Min Sea Level PressureIn, Max VisibilityMiles, Mean VisibilityMiles, Min VisibilityMiles, Max Wind SpeedMPH, Mean Wind SpeedMPH, Max Gust SpeedMPH,PrecipitationIn, CloudCover, Events, WindDirDegrees
2011-3-1,64,40,16,27,20,12,96,57,17,30.38,30.19,30.03,10,10,10,25,10,32,0.00,1,,353
2011-3-2,36,22,8,21,11,3,88,70,51,30.47,30.31,30.13,10,10,10,15,7,20,T,3,,88
2011-3-3,66,42,18,29,23,18,92,55,18,30.09,29.95,29.80,10,10,7,15,6,17,0.00,2,,324
2011-3-4,36,26,16,27,19,13,84,68,51,30.46,30.23,29.96,10,10,6,22,9,29,T,6,Snow,347
2011-3-5,47,29,11,24,17,9,92,65,38,30.46,30.32,30.13,10,10,10,17,7,25,0.00,1,,128
2011-3-6,32,22,12,26,18,14,88,71,53,30.10,30.02,29.96,10,8,1,20,13,24,0.02,5,Snow,62
2011-3-7,19,16,13,15,11,8,88,81,73,30.14,30.04,29.94,10,5,0,16,9,23,0.23,8,Fog-Snow,41
2011-3-8,26,21,15,21,17,12,96,89,81,30.17,30.03,29.88,10,4,1,20,8,23,0.07,8,Snow,8
2011-3-9,44,24,3,28,17,3,100,77,53,30.40,30.27,30.04,10,9,2,21,9,24,0.00,0,,304
2011-3-10,61,39,17,34,26,15,100,63,25,30.36,30.21,29.96,10,10,10,10,4,17,0.00,0,,234
2011-3-11,63,44,25,32,26,23,85,54,23,30.08,29.91,29.80,10,10,10,37,13,46,0.00,0,,307
2011-3-12,55,40,24,28,25,21,92,59,26,30.22,30.15,30.10,10,10,10,14,6,17,0.00,4,,62
2011-3-13,35,33,30,34,30,27,100,89,78,30.42,30.30,30.21,10,7,1,16,6,20,0.11,7,Rain-Snow,105
2011-3-14,57,43,29,35,31,28,100,71,41,30.41,30.24,30.06,10,10,8,20,10,29,0.00,4,,189
2011-3-15,62,45,27,34,31,27,100,64,28,30.18,30.10,30.04,10,10,10,15,6,20,0.00,1,,271
2011-3-16,73,52,31,37,33,29,82,54,25,30.02,29.82,29.61,10,10,10,16,7,22,0.00,0,,157
2011-3-17,61,45,29,40,31,21,92,57,22,30.20,29.89,29.55,10,10,10,31,11,40,0.00,0,,356
2011-3-18,61,46,31,40,34,26,92,64,35,30.36,30.27,30.21,10,10,10,26,8,30,0.06,3,Rain,238
2011-3-19,61,49,37,45,36,28,86,61,35,30.24,29.98,29.79,10,10,10,25,14,37,0.00,1,,140
2011-3-20,72,56,39,48,38,21,100,58,15,29.97,29.83,29.73,10,7,0,28,9,36,0.00,2,Fog,17
2011-3-21,55,48,40,52,43,33,96,74,52,29.99,29.81,29.51,10,6,2,24,14,30,0.00,6,,109
2011-3-22,65,51,37,51,35,14,100,57,14,29.58,29.49,29.43,10,8,2,31,16,43,T,1,Rain,297
2011-3-23,48,36,24,34,26,21,89,64,38,30.19,29.90,29.62,10,10,10,33,18,48,0.00,3,,330
2011-3-24,44,31,17,28,21,16,91,67,43,30.24,30.08,29.86,10,10,2,24,9,32,0.01,4,Snow,118
2011-3-25,36,33,30,32,31,30,100,91,82,29.96,29.90,29.82,5,3,0,22,10,29,T,8,Fog-Snow,112
2011-3-26,33,32,30,31,30,28,100,95,89,30.05,29.93,29.86,10,3,1,17,9,22,0.08,8,Rain-Snow,114
2011-3-27,32,30,28,30,28,27,100,93,85,30.08,29.99,29.93,10,5,2,16,10,20,0.02,8,Snow,129
2011-3-28,32,30,28,30,29,27,100,93,85,30.11,29.97,29.89,10,4,0,17,9,22,0.12,8,Fog-Snow,146
2011-3-29,42,34,26,34,30,25,100,82,64,30.24,30.16,30.04,10,7,2,7,3,9,0.00,7,,160
2011-3-30,52,41,29,40,33,28,100,82,63,30.16,29.98,29.78,10,6,1,16,8,20,0.09,7,Rain-Snow,144
2011-3-31,61,49,37,42,35,28,100,65,29,29.79,29.73,29.69,10,10,10,28,12,40,0.07,4,Rain,300